Location: Unspecified
(35.7250°N, 0.0000°E)
Time: 20:28:25
(UTC+00:00)

Vanguard 2 - Pass Details

Date: 03 July 2019
Orbit: 553 x 2938 km, 32.9° (Epoch: 19 July)

Event Time Altitude Azimuth Distance (km) Brightness Sun altitude
Exits shadow 02:43:11 13° 150° (SSE) 1,890 9.3 -20.3°
Drops below altitude 10° 02:44:46 10° 128° (SE) 1,987 9.7 -20.1°
Sets 02:47:57 0° 99° (E) 2,752 10.8 -19.7°
